Tracking 19484 objects as of 20-Jan-2019
HD Live streaming from Space Station
objects crossing your sky now

FENGYUN 1C DEB

Track FENGYUN 1C DEB now!
10-day predictions


NORAD ID: 31680
Int'l Code: 1999-025CCN
Perigee: 527.1 km
Apogee: 779.1 km
Inclination: 99.9 °
Period: 97.6 minutes
Semi major axis: 7024 km
RCS: 0.0075 m2 (small)
Launch date: May 10, 1999
Source: People's Republic of China (PRC)
Launch site: Taiyaun Space Center, China (TSC)

Note: This is SATELLITE DEBRIS
aabbcc
Your satellite tracking list
Your tracking list is empty




NASA's NSSDC Master Catalog

Two Line Element Set (TLE):
1 31680U 99025CCN 19018.01995698  .00000406  00000-0  57161-4 0  9993
2 31680  99.8710 219.3982 0179398 151.1299 209.9975 14.74753109627796
Source of the keplerian elements: AFSPC